Regional Weather Roundup
Issued by NWS

Home | Current Version | Previous Version | Graphics & Text | Print | Product List | Glossary On
Versions: 1 2 3 4 5 6 7 8 9 10 11 12 13 14 15 16 17 18 19 20 21 22 23 24 25 26 27 28 29 30 31 32 33 34 35 36 37 38 39 40 41 42 43 44 45 46 47 48 49 50
000
ASUS43 KMKX 222010
RWRWI

WISCONSIN REGIONAL WEATHER ROUNDUP
NATIONAL WEATHER SERVICE MILWAUKEE/SULLIVAN WI
300 PM CDT SUN APR 22 2018

NOTE: "FAIR" INDICATES FEW OR NO CLOUDS BELOW 12,000 FEET WITH NO
SIGNIFICANT WEATHER AND/OR OBSTRUCTIONS TO VISIBILITY.

WIZ001-002-006>008-014>016-023>028-222100-
NORTHWEST WISCONSIN

CITY           SKY/WX    TMP DP  RH WIND       PRES   REMARKS
SUPERIOR ARPT  FAIR      60  30  32 NE10      30.28F
ASHLAND        FAIR      61  23  23 S10       30.29F
HAYWARD        FAIR      60  30  32 SW10      30.29F
SIREN          FAIR      61  27  27 S6        30.29F
CUMBERLAND     FAIR      54  30  40 CALM      30.30F
RICE LAKE      FAIR      59  30  33 SW3       30.31F
CHETEK         FAIR      60  33  35 SE9       30.29F
LADYSMITH      FAIR      60  32  34 CALM      30.32F
EAU CLAIRE     FAIR      63  32  31 SE13      30.29F
MENOMONIE      FAIR      63  29  28 SE6       30.30F
NEW RICHMOND   FAIR      61  32  33 S8        30.30F
OSCEOLA        FAIR      62  34  35 E10       30.32F
$$

WIZ003>005-009-010-017-018-222100-
NORTH CENTRAL WISCONSIN

CITY           SKY/WX    TMP DP  RH WIND       PRES   REMARKS
MANITOWISH WTR FAIR      56  21  26 S7        30.29F
ARBOR VITAE    FAIR      59  20  22 S8        30.30F
WOODRUFF       FAIR      59  20  22 S8        30.30F
RHINELANDER    FAIR      59  23  25 S5        30.31F
EAGLE RIVER    FAIR      58  14  17 SE5       30.30F
LAND O LAKES   FAIR      61  10  13 CALM      30.31F
PHILLIPS       FAIR      58  29  33 SW6       30.29F
TOMAHAWK       FAIR      58  20  23 SE3       30.31F
MEDFORD        FAIR      54  30  39 S3        30.32F
MERRILL          N/A     59  26  28 CALM      30.32F
$$

WIZ029-030-035-036-043>047-222100-
CENTRAL WISCONSIN

CITY           SKY/WX    TMP DP  RH WIND       PRES   REMARKS
WAUSAU         FAIR      59  24  26 E5        30.30F
MOSINEE        MOSUNNY   57  25  28 E10       30.33F
MARSHFIELD     FAIR      55  28  35 SE10      30.31F
STEVENS POINT  FAIR      55  24  30 SE6       30.33F
WAUPACA        FAIR      58  11  15 SE7       30.34F
WAUTOMA        FAIR      57  21  24 E7        30.33F
WISC RAPIDS    FAIR      57  28  33 E8        30.33F
CAMP DOUGLAS   PTSUNNY   59  27  29 E8        30.30F
$$

WIZ011>013-019>022-031-037>040-048>050-222100-
NORTHEAST WISCONSIN

CITY           SKY/WX    TMP DP  RH WIND       PRES   REMARKS
ANTIGO         FAIR      55  31  39 S3        30.33F
SHAWANO        FAIR      58  17  19 E7        30.34F
OCONTO         FAIR      55  21  26 SE8       30.35F
STURGEON BAY   FAIR      55  18  23 S6        30.37F
GREEN BAY      FAIR      55  27  34 S7        30.35F
MANITOWOC      FAIR      52  23  32 E6        30.37F
APPLETON       MOSUNNY   57  16  19 S7        30.33F
CLINTONVILLE   FAIR      56  17  21 S7        30.34F
OSHKOSH        FAIR      57  26  30 NE6       30.33F
$$

WIZ032>034-041-042-053>061-222100-
SOUTHWEST WISCONSIN

CITY           SKY/WX    TMP DP  RH WIND       PRES   REMARKS
LA CROSSE      FAIR      64  29  26 E10       30.29F
SPARTA         FAIR      61  28  29 SE6       30.32F
VIROQUA        FAIR      60  33  35 E10       30.30F
BOSCOBEL       FAIR      66  23  19 NE7G17    30.28F
PRAIRIE DU CHI FAIR      64  19  17 E9        30.27F
PLATTEVILLE    FAIR      63  31  30 E12G18    30.28F
$$

WIZ056-057-062-063-064-067-068-222100-
SOUTH CENTRAL WISCONSIN

CITY           SKY/WX    TMP DP  RH WIND       PRES   REMARKS
REEDSBURG      FAIR      60  21  22 CALM      30.31F
BARABOO/DELLS  FAIR      60  18  19 N7        30.31F
LONE ROCK      FAIR      65  25  22 MISG      30.29F
MINERAL POINT  FAIR      63  28  27 E10       30.27F
MADISON        PTSUNNY   61  30  31 SE10G18   30.30F
MIDDLETON      FAIR      62  28  27 E10G16    30.30F
WATERTOWN      FAIR      59  31  35 E9        30.31F
MONROE         FAIR      63  30  29 E13G22    30.27F
JANESVILLE     MOSUNNY   64  25  22 E9G16     30.30F
$$

WIZ051-052-058>065-066-070>072-222100-
SOUTHEAST WISCONSIN

CITY           SKY/WX    TMP DP  RH WIND       PRES   REMARKS
MILWAUKEE      PTSUNNY   54  27  35 NE9       30.35F
WAUKESHA       SUNNY     55  27  33 E13       30.34F
MILWAUKEE/TIMM SUNNY     54  18  24 E10       30.36F
RACINE         FAIR      55  29  36 N9        30.35F
BURLINGTON     FAIR      60  26  27 E15       30.32F
KENOSHA        FAIR      59  28  30 E14       30.33F
FOND DU LAC    FAIR      58  27  30 NE8       30.33F
SHEBOYGAN      FAIR      54  32  43 E8        30.35F
WEST BEND      FAIR      59  27  29 SE9       30.34F
JUNEAU         FAIR      55  31  40 SE6       30.34F
$$

LSZ147-162-222100-
LAKE SUPERIOR

STATION/POSITION TIME  TEMP    WIND        PRES    WAVE
                       AIR SEA DIR/SP/G            HT/PER
                 (UTC) (F)     (DEG/KT/KT) (MB)    (FT/S)
DEVILS ISLAND    2000   39      60/  5/  6 1026.8F
SAXON HARBOR     1940   41     350/  1/  4 1025.7F
$$

LMZ867-665-643>646-222100-
LAKE MICHIGAN

STATION/POSITION TIME  TEMP    WIND        PRES    WAVE
                       AIR SEA DIR/SP/G            HT/PER
                 (UTC) (F)     (DEG/KT/KT) (MB)    (FT/S)
NORTHPORT PIER   1940   40                 1028.4F
KEWAUNEE LAKESHO 1948   46      40/  2/  3 1027.6F
SHEBOYGAN LAKESH 2000   40      20/  4/  5 1028.4F
PORT WASHINGTON  1940   44      50/  4/  6 1029.1F
MILWAUKEE LAKESH 1950   44      30/  9/  9   N/A
KENOSHA   LAKESH 2000   41                 1026.8
$$

TC  - TEMPERATURE IN CELSIUS
VSB - VISIBILITY IN STATUTE MILES
WCI - WIND CHILL INDEX
HX  - HEAT INDEX





USA.gov is the U.S. government's official web portal to all federal, state and local government web resources and services.